This is the latest recevied weather packets stored in our database for station/object KB1YTR-1. If no packets are shown the sender has not sent any weather packets the latest 10 day(s).
| Time | Temp. | Humidity | Pressure | Rain* | Wind** | Luminosity | Snow |
|---|---|---|---|---|---|---|---|
| 1788113011 | 16.67° C | 99% | 1012.6 hPa | 0 mm | - | - | - |
| 1788112195 | 16.67° C | 99% | 1012.9 hPa | 0 mm | - | - | - |
| 1788111343 | 16.67° C | 99% | 1012.8 hPa | 0 mm | - | - | - |
| 1788110481 | 16.11° C | 99% | 1013 hPa | 0 mm | - | - | - |
| 1788109746 | 16.11° C | 99% | 1013 hPa | 0 mm | - | - | - |
| 1788108935 | 16.11° C | 99% | 1013 hPa | 0 mm | - | - | - |
| 1788108150 | 15.56° C | 99% | 1012.5 hPa | 0.25 mm | - | - | - |
| 1788107271 | 15.56° C | 99% | 1012.9 hPa | 0.51 mm | - | - | - |
| 1788106525 | 15.56° C | 99% | 1012.9 hPa | 0.76 mm | - | - | - |
| 1788105660 | 15.56° C | 99% | 1013.1 hPa | 1.27 mm | - | - | - |
| 1788104890 | 15.56° C | 99% | 1013.1 hPa | 1.02 mm | - | - | - |
| 1788103995 | 15.56° C | 99% | 1013.5 hPa | 0.51 mm | - | - | - |
| 1788103146 | 15.56° C | 99% | 1013.6 hPa | 0.25 mm | - | - | - |
| 1788102336 | 15.56° C | 99% | 1013.8 hPa | 0 mm | - | - | - |
| 1788101505 | 15.56° C | 99% | 1013.8 hPa | 0 mm | - | - | - |
| 1788100736 | 16.11° C | 99% | 1013.2 hPa | 0 mm | - | - | - |
| 1788099840 | 16.11° C | 99% | 1012.9 hPa | 0 mm | - | - | - |
| 1788098985 | 16.11° C | 99% | 1012.6 hPa | 0 mm | - | - | - |
| 1788098185 | 16.11° C | 99% | 1012.5 hPa | 0 mm | - | - | - |
| 1788097450 | 16.11° C | 99% | 1012.3 hPa | 0 mm | - | - | - |
| 1788096725 | 16.11° C | 99% | 1012.4 hPa | 0 mm | - | - | - |
| 1788095940 | 16.11° C | 99% | 1012.6 hPa | 0 mm | - | - | - |
| 1788095170 | 16.11° C | 99% | 1013.1 hPa | 0 mm | - | - | - |
| 1788094375 | 16.11° C | 99% | 1013 hPa | 0 mm | - | - | - |
| 1788093600 | 16.11° C | 99% | 1012.9 hPa | 0 mm | - | - | - |
* Rain latest hour (hover to see other rain measurements)
** Current wind speed in m/s (hover to see current wind gust speed)